E22ZMG-1 Weather Reports


time (UTC)temp
C
wind
direction
speed
KPH
gust
KPH
rain 1hr
cm
rain 24hr
cm
rain mn
cm
humidity
%
barometer
mb
20260510164309 29 0 0.0 0.0 0.00 0.00 0.00 71 978.0
20260510163244 30 0 0.0 0.0 0.00 0.00 0.00 71 978.0
20260510162219 30 0 0.0 0.0 0.00 0.00 0.00 70 978.0
20260510161152 30 0 0.0 0.0 0.00 0.00 0.00 70 978.0
20260510160127 30 0 0.0 0.0 0.00 0.00 0.00 70 978.0
20260510155101 29 0 0.0 0.0 0.00 0.00 0.00 71 978.0
20260510154036 30 0 0.0 0.0 0.00 0.00 0.00 68 978.0
20260510153011 30 0 0.0 0.0 0.00 0.00 0.00 68 978.0
20260510151946 30 0 0.0 0.0 0.00 0.00 0.00 68 978.0
20260510150920 29 0 0.0 0.0 0.00 0.00 0.00 70 978.0
20260510145855 30 0 0.0 0.0 0.00 0.00 0.00 69 978.0
20260510144831 30 0 0.0 0.0 0.00 0.00 0.00 69 977.0
20260510143807 29 0 0.0 0.0 0.00 0.00 0.00 70 977.0
20260510142742 29 0 0.0 0.0 0.00 0.00 0.00 70 977.0
20260510141716 30 0 0.0 0.0 0.00 0.00 0.00 68 977.0
20260510140651 30 0 0.0 0.0 0.00 0.00 0.00 68 977.0
20260510135626 29 0 0.0 0.0 0.00 0.00 0.00 69 977.0
20260510134602 30 0 0.0 0.0 0.00 0.00 0.00 67 978.0
20260510133536 30 0 0.0 0.0 0.00 0.00 0.00 68 977.0
20260510132511 30 0 0.0 0.0 0.00 0.00 0.00 69 977.0
20260510131446 30 0 0.0 0.0 0.00 0.00 0.00 68 977.0
20260510130421 31 0 0.0 0.0 0.00 0.00 0.00 67 977.0
20260510125356 31 0 0.0 0.0 0.00 0.00 0.00 67 977.0
20260510124331 31 0 0.0 0.0 0.00 0.00 0.00 64 976.0
20260510123307 32 0 0.0 0.0 0.00 0.00 0.00 61 976.0
20260510122242 31 0 0.0 0.0 0.00 0.00 0.00 64 975.0
20260510121217 30 0 0.0 0.0 0.00 0.00 0.00 68 976.0
20260510120152 31 0 0.0 0.0 0.00 0.00 0.00 59 975.0
20260510115127 34 0 0.0 0.0 0.00 0.00 0.00 54 974.0
20260510114103 35 0 0.0 0.0 0.00 0.00 0.00 51 974.0
20260510113038 35 0 0.0 0.0 0.00 0.00 0.00 52 974.0
20260510112012 35 0 0.0 0.0 0.00 0.00 0.00 51 974.0
20260510110948 35 0 0.0 0.0 0.00 0.00 0.00 51 974.0
20260510105923 35 0 0.0 0.0 0.00 0.00 0.00 52 973.0
20260510104857 35 0 0.0 0.0 0.00 0.00 0.00 52 973.0
20260510103832 34 0 0.0 0.0 0.00 0.00 0.00 54 973.0
20260510102807 35 0 0.0 0.0 0.00 0.00 0.00 52 973.0
20260510101741 35 0 0.0 0.0 0.00 0.00 0.00 52 973.0
20260510100716 35 0 0.0 0.0 0.00 0.00 0.00 51 973.0
20260510095652 36 0 0.0 0.0 0.00 0.00 0.00 50 972.0
20260510094626 36 0 0.0 0.0 0.00 0.00 0.00 50 972.0
20260510093601 35 0 0.0 0.0 0.00 0.00 0.00 52 972.0
20260510092536 34 0 0.0 0.0 0.00 0.00 0.00 52 972.0
20260510091512 36 0 0.0 0.0 0.00 0.00 0.00 49 972.0
20260510090447 35 0 0.0 0.0 0.00 0.00 0.00 50 972.0
20260510085422 36 0 0.0 0.0 0.00 0.00 0.00 48 972.0
20260510084355 37 0 0.0 0.0 0.00 0.00 0.00 46 972.0
20260510083330 36 0 0.0 0.0 0.00 0.00 0.00 47 972.0
20260510082307 37 0 0.0 0.0 0.00 0.00 0.00 46 972.0
20260510081240 38 0 0.0 0.0 0.00 0.00 0.00 45 972.0
20260510080215 37 0 0.0 0.0 0.00 0.00 0.00 46 972.0
20260510075149 36 0 0.0 0.0 0.00 0.00 0.00 48 972.0
20260510074125 36 0 0.0 0.0 0.00 0.00 0.00 46 972.0
20260510073100 36 0 0.0 0.0 0.00 0.00 0.00 47 972.0
20260510072036 38 0 0.0 0.0 0.00 0.00 0.00 44 972.0
20260510071012 39 0 0.0 0.0 0.00 0.00 0.00 39 973.0
20260510065945 39 0 0.0 0.0 0.00 0.00 0.00 38 973.0
20260510064919 40 0 0.0 0.0 0.00 0.00 0.00 37 973.0
20260510063855 40 0 0.0 0.0 0.00 0.00 0.00 38 973.0
20260510062829 40 0 0.0 0.0 0.00 0.00 0.00 38 973.0
20260510061805 39 0 0.0 0.0 0.00 0.00 0.00 38 974.0
20260510060739 38 0 0.0 0.0 0.00 0.00 0.00 39 974.0
20260510055714 38 0 0.0 0.0 0.00 0.00 0.00 40 974.0
20260510054649 37 0 0.0 0.0 0.00 0.00 0.00 41 974.0
20260510053625 38 0 0.0 0.0 0.00 0.00 0.00 40 975.0
20260510052600 38 0 0.0 0.0 0.00 0.00 0.00 42 975.0
20260510051534 38 0 0.0 0.0 0.00 0.00 0.00 42 975.0
20260510050509 38 0 0.0 0.0 0.00 0.00 0.00 43 975.0
20260510045445 38 0 0.0 0.0 0.00 0.00 0.00 44 975.0
20260510044419 37 0 0.0 0.0 0.00 0.00 0.00 46 976.0
20260510043354 38 0 0.0 0.0 0.00 0.00 0.00 44 976.0
20260510042329 36 0 0.0 0.0 0.00 0.00 0.00 47 976.0
20260510041303 36 0 0.0 0.0 0.00 0.00 0.00 48 976.0
20260510040238 35 0 0.0 0.0 0.00 0.00 0.00 50 976.0
20260510035212 36 0 0.0 0.0 0.00 0.00 0.00 50 976.0
20260510034147 36 0 0.0 0.0 0.00 0.00 0.00 50 976.0
20260510033122 35 0 0.0 0.0 0.00 0.00 0.00 51 976.0
20260510032055 35 0 0.0 0.0 0.00 0.00 0.00 50 976.0
20260510031029 35 0 0.0 0.0 0.00 0.00 0.00 51 977.0
20260510030004 35 0 0.0 0.0 0.00 0.00 0.00 51 977.0
20260510025502 35 0 0.0 0.0 0.00 0.00 0.00 51 977.0
20260510024435 35 0 0.0 0.0 0.00 0.00 0.00 53 977.0
20260510023409 33 0 0.0 0.0 0.00 0.00 0.00 56 977.0
20260510022343 35 0 0.0 0.0 0.00 0.00 0.00 52 977.0
20260510021317 34 0 0.0 0.0 0.00 0.00 0.00 54 977.0
20260510020534 34 0 0.0 0.0 0.00 0.00 0.00 55 977.0
20260510015509 33 0 0.0 0.0 0.00 0.00 0.00 57 977.0
20260510014443 33 0 0.0 0.0 0.00 0.00 0.00 58 977.0
20260510013416 32 0 0.0 0.0 0.00 0.00 0.00 59 977.0
20260510012350 32 0 0.0 0.0 0.00 0.00 0.00 60 977.0
20260510011326 32 0 0.0 0.0 0.00 0.00 0.00 61 977.0
20260510010300 32 0 0.0 0.0 0.00 0.00 0.00 62 977.0
20260510005236 31 0 0.0 0.0 0.00 0.00 0.00 63 977.0
20260510004211 31 0 0.0 0.0 0.00 0.00 0.00 64 977.0
20260510003146 31 0 0.0 0.0 0.00 0.00 0.00 65 977.0
20260510002122 31 0 0.0 0.0 0.00 0.00 0.00 66 977.0
20260510001057 31 0 0.0 0.0 0.00 0.00 0.00 66 976.0
20260510000030 31 0 0.0 0.0 0.00 0.00 0.00 66 976.0
20260509235002 31 0 0.0 0.0 0.00 0.00 0.00 66 976.0
20260509233937 30 0 0.0 0.0 0.00 0.00 0.00 68 976.0
20260509232912 30 0 0.0 0.0 0.00 0.00 0.00 67 976.0
20260509231847 31 0 0.0 0.0 0.00 0.00 0.00 66 976.0
20260509230823 31 0 0.0 0.0 0.00 0.00 0.00 67 975.0
20260509225757 30 0 0.0 0.0 0.00 0.00 0.00 72 975.0
20260509224731 30 0 0.0 0.0 0.00 0.00 0.00 68 975.0
20260509223706 31 0 0.0 0.0 0.00 0.00 0.00 67 975.0
20260509222641 31 0 0.0 0.0 0.00 0.00 0.00 68 975.0
20260509221615 30 0 0.0 0.0 0.00 0.00 0.00 68 975.0
20260509221137 30 0 0.0 0.0 0.00 0.00 0.00 68 975.0
20260509220113 31 0 0.0 0.0 0.00 0.00 0.00 67 975.0
20260509215048 31 0 0.0 0.0 0.00 0.00 0.00 66 975.0
20260509214023 31 0 0.0 0.0 0.00 0.00 0.00 67 975.0
20260509212957 30 0 0.0 0.0 0.00 0.00 0.00 67 975.0
20260509211932 30 0 0.0 0.0 0.00 0.00 0.00 68 974.0
20260509210906 30 0 0.0 0.0 0.00 0.00 0.00 68 974.0
20260509205841 30 0 0.0 0.0 0.00 0.00 0.00 67 975.0
20260509204006 30 0 0.0 0.0 0.00 0.00 0.00 68 975.0
20260509202940 31 0 0.0 0.0 0.00 0.00 0.00 67 975.0
20260509201915 30 0 0.0 0.0 0.00 0.00 0.00 67 975.0
20260509200851 31 0 0.0 0.0 0.00 0.00 0.00 65 975.0
20260509195826 31 0 0.0 0.0 0.00 0.00 0.00 65 975.0
20260509194801 31 0 0.0 0.0 0.00 0.00 0.00 66 975.0
20260509193735 31 0 0.0 0.0 0.00 0.00 0.00 64 975.0
20260509192711 31 0 0.0 0.0 0.00 0.00 0.00 64 975.0
20260509191646 31 0 0.0 0.0 0.00 0.00 0.00 64 975.0
20260509190621 31 0 0.0 0.0 0.00 0.00 0.00 64 975.0
20260509185555 31 0 0.0 0.0 0.00 0.00 0.00 64 976.0
20260509184530 32 0 0.0 0.0 0.00 0.00 0.00 63 976.0
20260509183505 32 0 0.0 0.0 0.00 0.00 0.00 63 976.0
20260509182440 31 0 0.0 0.0 0.00 0.00 0.00 65 976.0
20260509181415 31 0 0.0 0.0 0.00 0.00 0.00 65 976.0
20260509180350 31 0 0.0 0.0 0.00 0.00 0.00 64 976.0
20260509175325 32 0 0.0 0.0 0.00 0.00 0.00 62 976.0
20260509174259 31 0 0.0 0.0 0.00 0.00 0.00 62 976.0
20260509173234 32 0 0.0 0.0 0.00 0.00 0.00 62 976.0
20260509172209 32 0 0.0 0.0 0.00 0.00 0.00 62 976.0
20260509171144 32 0 0.0 0.0 0.00 0.00 0.00 61 976.0
20260509170118 31 0 0.0 0.0 0.00 0.00 0.00 63 976.0
20260509165054 32 0 0.0 0.0 0.00 0.00 0.00 61 977.0